GFSFLT2_850_spd_276.txt.gz
Wind_Speed
7 7 10 4 1 7 7 3 2 3 6 9 1 3 9 6 12 23 32 41 43 40 37 36 32 29 24 25 22 24 28 26
9 5 3 10 7 1 3 5 3 4 5 6 4 7 5 5 11 16 33 38 40 41 40 36 32 27 24 20 21 27 27 25
3 2 9 1 2 6 6 5 6 3 6 8 10 9 11 17 30 17 38 39 39 39 37 34 31 26 23 20 19 25 27 23
4 8 4 6 7 6 5 4 3 5 6 3 8 13 21 32 24 25 38 40 39 38 37 35 30 26 23 21 19 22 21 21
9 8 6 2 3 6 4 3 4 5 5 5 4 13 30 31 26 27 35 39 39 38 37 35 30 27 25 23 20 21 22 21
6 6 3 6 6 4 6 3 4 5 4 1 4 7 18 28 36 40 39 42 41 40 39 36 31 29 29 27 25 29 28 25
5 6 3 4 1 5 6 5 5 6 8 8 11 11 28 43 40 36 34 38 40 41 41 40 36 32 30 29 29 33 30 30
3 6 6 3 6 3 5 1 2 7 5 5 10 11 7 21 29 31 30 39 42 43 43 43 40 37 34 31 34 35 34 34
3 2 3 5 6 10 7 8 4 6 5 2 8 15 17 8 19 27 27 38 46 47 47 48 44 41 40 37 37 38 36 35
3 3 3 5 6 18 16 8 7 7 8 7 6 15 20 21 19 10 9 26 36 46 48 50 47 40 30 26 24 29 40 40
5 4 4 3 3 1 7 5 4 6 7 13 4 6 12 17 14 15 13 7 13 41 45 35 35 30 26 18 17 24 42 33
3 5 6 4 7 5 8 3 3 10 6 9 11 4 5 10 12 12 14 19 18 11 27 25 26 27 18 10 13 36 69 58
2 2 1 4 8 3 4 6 2 9 9 9 2 2 13 4 10 10 14 18 16 4 23 28 28 22 13 37 35 31 46 39
3 4 3 3 6 7 7 7 9 9 12 13 14 14 15 9 15 14 16 17 12 8 16 16 15 19 23 21 21 12 20 18
5 5 4 7 22 19 13 8 3 7 7 11 15 17 4 16 14 18 17 18 17 5 6 6 4 7 16 22 9 9 19 8
5 7 8 20 18 15 8 6 6 7 8 10 12 12 15 16 18 15 13 12 12 10 14 21 18 18 9 8 4 4 8 18
5 3 15 12 11 7 4 5 5 8 9 16 12 15 9 16 19 16 14 15 18 21 17 9 3 3 6 5 0 10 13 14
4 6 10 8 8 3 4 6 9 9 12 15 12 12 9 11 14 17 12 17 16 13 12 11 8 5 3 1 1 9 9 7
8 12 12 8 9 4 7 19 17 17 16 15 17 18 15 18 13 18 18 13 11 11 13 13 14 12 8 7 4 3 5 8

GFSFLT2_850_spd_279.txt.gz
Wind_Speed
5 6 10 4 3 5 7 4 2 3 7 10 3 5 2 3 7 4 22 31 37 40 39 37 36 34 33 26 24 22 17 22
4 5 3 11 9 2 3 3 4 4 5 6 4 6 5 8 9 5 9 21 30 38 38 36 35 33 31 26 22 21 19 24
3 1 8 2 0 7 6 4 6 2 6 8 10 9 9 10 14 12 15 20 28 34 36 35 34 35 32 28 27 25 22 24
10 2 4 5 3 6 5 4 0 3 6 4 8 10 16 22 19 16 16 24 28 34 36 35 35 34 31 28 27 23 24 28
10 7 6 1 3 5 6 4 6 6 6 3 5 8 19 24 20 19 15 21 27 32 35 35 36 35 32 29 28 24 26 29
7 6 3 5 3 4 5 4 4 6 4 4 5 10 13 24 27 23 20 22 28 33 36 36 36 35 34 30 29 27 26 29
5 3 4 4 3 5 6 5 5 4 6 3 7 5 8 22 20 22 20 25 31 37 38 39 38 37 35 33 32 31 29 32
3 4 1 3 5 7 4 2 3 3 1 5 8 5 3 7 16 20 27 31 34 38 38 40 40 38 34 31 30 28 28 31
5 3 5 4 3 6 4 5 3 5 4 6 10 16 13 2 7 4 10 18 25 33 38 34 35 37 34 30 32 31 30 34
3 3 3 5 4 6 12 4 6 6 4 6 12 19 22 22 16 5 3 8 12 23 31 35 29 30 31 28 25 25 15 6
5 4 2 3 5 3 5 3 5 6 6 11 5 16 17 13 14 12 10 11 14 14 15 28 33 33 33 32 30 19 18 13
3 5 7 8 3 7 5 2 3 9 8 8 17 5 2 5 8 11 14 17 21 18 15 19 27 32 36 37 29 22 38 41
3 3 5 5 3 9 3 7 6 11 11 11 5 1 1 3 6 9 10 13 14 14 11 14 22 24 29 32 21 18 24 25
3 4 2 6 2 4 8 13 13 11 11 14 12 11 10 9 11 11 11 12 13 10 1 12 18 22 21 14 10 7 7 16
5 5 4 5 7 25 21 17 11 14 11 9 11 14 12 12 10 11 11 10 9 3 4 7 8 8 6 7 7 6 4 4
4 4 3 18 20 16 15 20 18 13 12 12 14 16 15 8 8 12 11 11 9 10 14 9 11 9 9 7 7 6 3 5
3 4 12 11 17 20 22 21 20 19 18 16 14 15 12 13 12 12 14 15 13 9 10 8 4 2 4 4 8 3 3 5
5 15 7 12 16 17 22 19 17 16 19 16 12 14 13 12 12 16 14 8 7 8 9 8 8 9 6 8 9 8 6 2
11 16 16 17 15 16 21 20 18 17 14 15 15 12 13 13 14 16 10 8 9 8 9 11 10 11 10 10 9 9 6 11

GFSFLT2_850_spd_285.txt.gz
Wind_Speed
3 4 3 5 4 2 3 2 2 3 3 6 4 8 10 8 8 10 9 11 11 15 16 25 29 25 19 18 20 25 26 17
4 5 8 2 10 3 0 1 2 1 4 3 1 2 4 7 8 6 5 7 7 10 12 16 22 26 23 19 19 19 25 25
3 6 9 5 4 4 4 2 2 2 3 5 5 3 5 7 4 4 4 6 6 6 9 10 16 23 24 22 21 22 24 26
2 4 2 1 6 6 4 4 1 2 2 6 7 8 6 7 5 4 5 6 8 7 7 10 13 18 23 24 21 19 20 23
4 4 4 3 4 3 5 3 5 2 0 4 9 10 10 6 5 5 5 7 8 9 10 11 14 15 19 22 21 19 21 23
7 3 5 5 5 6 6 5 7 4 2 5 14 13 15 12 9 4 1 3 7 9 9 10 12 15 18 21 22 22 22 24
3 2 2 5 10 11 9 4 4 4 3 7 10 10 11 11 7 6 2 2 4 8 9 10 12 15 19 21 25 25 26 27
4 3 2 3 2 8 4 7 5 6 3 3 6 6 10 9 9 12 9 5 5 5 7 8 9 13 18 23 26 28 29 30
6 3 5 4 3 5 4 5 9 6 6 4 9 14 14 12 10 13 11 11 10 8 7 9 11 12 15 20 24 25 27 30
4 6 6 3 1 4 11 4 5 14 10 8 10 9 9 10 11 12 12 12 12 12 12 12 10 9 10 12 17 21 22 25
5 5 3 3 8 8 4 5 5 10 9 9 7 2 6 8 9 9 10 12 15 17 18 17 13 9 6 7 9 12 14 18
4 5 7 6 16 5 9 7 9 9 10 12 3 3 2 3 5 7 11 13 16 17 16 14 12 8 2 1 3 7 11 10
5 3 1 5 12 11 5 6 19 14 10 11 4 1 4 3 3 5 8 9 10 12 14 14 13 9 5 3 3 2 8 11
3 4 4 15 12 10 6 19 22 15 12 10 7 6 5 5 5 6 6 7 10 11 12 13 12 7 2 3 7 6 6 7
5 4 2 24 5 8 22 29 17 17 13 9 8 7 8 5 4 6 8 10 12 12 10 7 5 4 4 5 6 6 4 7
6 3 7 12 10 22 24 22 22 15 13 9 8 10 9 5 5 9 12 14 13 11 11 10 8 6 7 7 8 6 1 4
5 5 11 7 16 28 24 23 20 16 11 10 10 10 8 8 10 11 11 11 10 10 8 8 9 10 9 8 9 7 5 6
6 23 6 23 25 27 27 23 19 15 15 13 12 11 10 12 11 10 10 11 10 9 7 9 9 10 10 10 10 8 5 9
7 26 15 27 29 26 26 22 18 15 15 15 12 10 11 13 11 9 9 8 8 9 9 9 8 9 10 10 11 12 13 11

GFSFLT2_850_spd_291.txt.gz
Wind_Speed
15 11 10 4 8 14 8 6 8 11 14 13 12 12 12 11 9 8 8 7 7 10 12 16 18 18 18 19 18 20 21 20
12 7 10 6 21 3 10 2 11 6 15 11 12 10 9 10 10 9 11 9 9 10 12 15 18 19 17 18 18 18 19 19
12 12 13 10 10 12 7 5 6 9 9 10 5 4 11 11 8 11 11 11 11 10 11 13 15 18 19 18 17 17 18 20
16 17 10 10 10 8 5 11 4 10 11 9 8 7 2 5 6 5 8 9 10 11 12 13 15 16 17 18 19 18 18 21
16 9 10 9 12 11 9 16 2 5 10 12 12 10 4 7 6 5 6 7 7 7 7 7 9 11 13 15 16 16 17 19
12 14 16 16 12 8 11 5 10 8 14 15 8 8 6 6 5 6 4 6 5 4 4 2 3 6 9 11 13 14 15 16
8 4 5 12 10 9 12 3 4 16 12 15 7 7 7 10 9 9 8 7 6 4 3 2 1 3 5 7 10 12 13 14
12 10 6 8 13 11 8 1 7 4 11 14 10 9 10 12 14 15 15 13 11 9 8 7 6 4 3 3 5 7 10 11
13 10 10 11 10 8 7 5 6 7 9 14 13 12 13 14 15 15 14 13 12 11 11 11 10 8 7 4 0 2 8 11
10 14 15 9 17 13 7 5 5 7 9 14 16 15 15 14 14 13 12 11 11 10 10 10 9 8 6 4 2 5 4 5
11 14 11 6 6 7 8 9 5 6 12 17 19 18 14 13 13 12 11 10 10 10 11 11 12 11 11 10 10 8 7 6
14 13 16 13 17 15 10 8 8 13 15 16 16 10 11 12 13 12 11 11 11 11 11 12 12 12 13 12 10 9 7 5
11 13 12 11 18 10 10 10 19 20 18 14 6 15 17 13 13 12 11 11 11 12 12 12 11 10 11 9 9 8 8 8
13 11 11 21 15 10 5 17 20 20 16 13 15 16 15 13 12 11 11 10 10 10 11 11 10 9 9 9 9 7 6 6
14 14 14 25 14 14 12 17 19 17 16 17 17 15 14 13 11 11 11 10 9 10 11 9 8 8 8 7 6 5 6 7
13 8 16 22 13 16 15 19 18 18 18 18 17 15 14 13 12 11 10 10 9 9 8 8 10 9 8 9 10 8 6 10
5 5 12 18 18 18 17 19 19 19 18 17 17 15 14 14 13 12 11 10 8 7 8 10 8 9 9 8 8 7 8 8
7 16 12 21 21 19 21 22 23 23 19 17 18 17 17 15 14 13 12 9 10 9 9 9 7 7 9 8 8 7 8 8
11 21 22 19 21 19 22 24 24 22 22 23 20 18 17 18 16 16 12 11 10 9 8 7 6 6 5 5 5 7 5 5